Time,TemperatureF,DewpointF,PressureIn,WindDirection,WindDirectionDegrees,WindSpeedMPH,WindSpeedGustMPH,Humidity,HourlyPrecipIn,Conditions,Clouds,dailyrainin,SoftwareType,DateUTC
2013-03-06 00:02:00,34.0,33.0,30.35,NW,305,0.0,0.0,96,0.01,,,0.01,,2013-03-06 05:02:00,
2013-03-06 00:12:00,34.0,33.0,30.35,NW,305,0.0,0.0,96,0.01,,,0.01,,2013-03-06 05:12:00,
2013-03-06 00:22:00,34.0,33.0,30.36,NW,305,0.0,0.0,96,0.00,,,0.01,,2013-03-06 05:22:00,
2013-03-06 00:32:00,34.0,33.0,30.36,NNW,328,0.0,1.0,96,0.00,,,0.01,,2013-03-06 05:32:00,
2013-03-06 00:42:00,34.0,33.0,30.36,NNW,328,0.0,1.0,96,0.00,,,0.01,,2013-03-06 05:42:00,
2013-03-06 00:52:00,34.0,33.0,30.35,ENE,71,0.0,0.0,97,0.00,,,0.01,,2013-03-06 05:52:00,
2013-03-06 01:02:00,34.0,33.0,30.35,ENE,72,0.0,1.0,97,0.00,,,0.01,,2013-03-06 06:02:00,
2013-03-06 01:11:00,34.0,33.0,30.35,ENE,72,0.0,1.0,97,0.00,,,0.01,,2013-03-06 06:11:00,
2013-03-06 01:22:00,34.0,33.0,30.36,ENE,73,0.0,0.0,97,0.00,,,0.01,,2013-03-06 06:22:00,
2013-03-06 01:32:00,35.0,34.0,30.36,ENE,72,0.0,1.0,97,0.00,,,0.01,,2013-03-06 06:32:00,
2013-03-06 01:42:00,35.0,34.0,30.36,ENE,72,0.0,1.0,97,0.00,,,0.01,,2013-03-06 06:42:00,
2013-03-06 01:52:00,35.0,34.0,30.35,North,3,0.0,3.0,97,0.00,,,0.01,,2013-03-06 06:52:00,
2013-03-06 02:01:00,35.0,34.0,30.35,NNE,20,0.0,2.0,97,0.00,,,0.01,,2013-03-06 07:01:00,
2013-03-06 02:11:00,35.0,34.0,30.35,NNE,20,0.0,2.0,97,0.00,,,0.01,,2013-03-06 07:11:00,
2013-03-06 02:22:00,35.0,34.0,30.35,NE,39,2.0,6.0,96,0.00,,,0.01,,2013-03-06 07:22:00,
2013-03-06 02:32:00,35.0,34.0,30.35,ENE,58,0.0,8.0,96,0.00,,,0.01,,2013-03-06 07:32:00,
2013-03-06 02:42:00,35.0,34.0,30.35,ENE,58,0.0,8.0,96,0.00,,,0.01,,2013-03-06 07:42:00,
2013-03-06 02:52:00,35.0,34.0,30.35,NNE,15,1.0,3.0,95,0.00,,,0.01,,2013-03-06 07:52:00,
2013-03-06 03:01:00,35.0,34.0,30.35,NE,46,0.0,2.0,95,0.00,,,0.01,,2013-03-06 08:01:00,
2013-03-06 03:11:00,35.0,34.0,30.35,NE,46,0.0,2.0,95,0.00,,,0.01,,2013-03-06 08:11:00,
2013-03-06 03:21:00,35.0,34.0,30.34,ENE,72,1.0,3.0,95,0.00,,,0.01,,2013-03-06 08:21:00,
2013-03-06 03:32:00,35.0,34.0,30.35,ENE,60,1.0,3.0,95,0.00,,,0.01,,2013-03-06 08:32:00,
2013-03-06 03:42:00,35.0,34.0,30.35,ENE,60,1.0,3.0,95,0.00,,,0.01,,2013-03-06 08:42:00,
2013-03-06 03:52:00,35.0,34.0,30.35,NE,53,1.0,3.0,95,0.00,,,0.01,,2013-03-06 08:52:00,
2013-03-06 04:01:00,35.0,34.0,30.35,North,11,2.0,9.0,95,0.00,,,0.01,,2013-03-06 09:01:00,
2013-03-06 04:12:00,35.0,34.0,30.35,North,11,2.0,9.0,95,0.00,,,0.01,,2013-03-06 09:12:00,
2013-03-06 04:22:00,35.0,34.0,30.36,NE,40,1.0,3.0,95,0.01,,,0.02,,2013-03-06 09:22:00,
2013-03-06 04:32:00,35.0,34.0,30.36,ENE,58,1.0,3.0,95,0.01,,,0.02,,2013-03-06 09:32:00,
2013-03-06 04:42:00,35.0,34.0,30.36,ENE,58,1.0,3.0,95,0.01,,,0.02,,2013-03-06 09:42:00,
2013-03-06 04:52:00,35.0,34.0,30.37,East,79,1.0,3.0,95,0.01,,,0.02,,2013-03-06 09:52:00,
2013-03-06 05:01:00,35.0,34.0,30.37,NE,47,0.0,3.0,96,0.01,,,0.02,,2013-03-06 10:01:00,
2013-03-06 05:11:00,35.0,34.0,30.37,NE,47,0.0,3.0,96,0.01,,,0.02,,2013-03-06 10:11:00,
2013-03-06 05:22:00,35.0,34.0,30.37,East,79,1.0,10.0,96,0.02,,,0.04,,2013-03-06 10:22:00,
2013-03-06 05:32:00,35.0,34.0,30.37,ESE,117,1.0,3.0,96,0.02,,,0.04,,2013-03-06 10:32:00,
2013-03-06 05:42:00,35.0,34.0,30.37,ESE,117,1.0,3.0,96,0.02,,,0.04,,2013-03-06 10:42:00,
2013-03-06 05:52:00,36.0,35.0,30.37,ESE,107,2.0,8.0,96,0.05,,,0.07,,2013-03-06 10:52:00,
2013-03-06 06:02:00,36.0,35.0,30.37,ENE,61,2.0,13.0,96,0.05,,,0.07,,2013-03-06 11:02:00,
2013-03-06 06:11:00,36.0,35.0,30.37,ENE,61,2.0,13.0,96,0.05,,,0.07,,2013-03-06 11:11:00,
2013-03-06 06:22:00,36.0,35.0,30.37,WNW,300,1.0,8.0,96,0.04,,,0.08,,2013-03-06 11:22:00,
2013-03-06 06:32:00,37.0,36.0,30.37,East,79,4.0,14.0,96,0.04,,,0.08,,2013-03-06 11:32:00,
2013-03-06 06:42:00,37.0,36.0,30.37,East,79,4.0,14.0,96,0.04,,,0.08,,2013-03-06 11:42:00,
2013-03-06 06:52:00,37.0,35.0,30.37,WNW,283,1.0,12.0,94,0.02,,,0.09,,2013-03-06 11:52:00,
2013-03-06 07:02:00,37.0,35.0,30.38,East,98,2.0,10.0,93,0.02,,,0.09,,2013-03-06 12:02:00,
2013-03-06 07:12:00,37.0,35.0,30.38,East,98,2.0,10.0,93,0.02,,,0.09,,2013-03-06 12:12:00,
2013-03-06 07:22:00,37.0,35.0,30.38,ENE,77,2.0,9.0,92,0.01,,,0.09,,2013-03-06 12:22:00,
2013-03-06 07:33:00,37.0,35.0,30.39,North,4,4.0,9.0,91,0.01,,,0.09,,2013-03-06 12:33:00,
2013-03-06 07:42:00,37.0,35.0,30.39,North,4,4.0,9.0,91,0.01,,,0.09,,2013-03-06 12:42:00,
2013-03-06 07:52:00,37.0,34.0,30.40,North,4,4.0,17.0,90,0.00,,,0.09,,2013-03-06 12:52:00,
2013-03-06 08:02:00,37.0,34.0,30.41,NE,50,2.0,8.0,90,0.00,,,0.09,,2013-03-06 13:02:00,
2013-03-06 08:12:00,37.0,34.0,30.41,NE,50,2.0,8.0,90,0.00,,,0.09,,2013-03-06 13:12:00,
2013-03-06 08:22:00,37.0,34.0,30.42,East,84,5.0,12.0,87,0.00,,,0.09,,2013-03-06 13:22:00,
2013-03-06 08:32:00,38.0,33.0,30.42,NNW,340,5.0,12.0,82,0.00,,,0.09,,2013-03-06 13:32:00,
2013-03-06 08:42:00,38.0,33.0,30.42,NNW,340,5.0,12.0,82,0.00,,,0.09,,2013-03-06 13:42:00,
2013-03-06 08:52:00,38.0,32.0,30.42,ENE,77,3.0,12.0,80,0.00,,,0.09,,2013-03-06 13:52:00,
2013-03-06 09:02:00,37.0,33.0,30.42,East,79,4.0,17.0,84,0.00,,,0.09,,2013-03-06 14:02:00,
2013-03-06 09:11:00,37.0,33.0,30.42,East,79,4.0,17.0,84,0.00,,,0.09,,2013-03-06 14:11:00,
2013-03-06 09:22:00,37.0,33.0,30.41,ENE,71,3.0,8.0,84,0.00,,,0.09,,2013-03-06 14:22:00,
2013-03-06 09:32:00,38.0,33.0,30.42,NNE,33,5.0,12.0,82,0.00,,,0.09,,2013-03-06 14:32:00,
2013-03-06 09:42:00,38.0,33.0,30.42,NNE,33,5.0,12.0,82,0.00,,,0.09,,2013-03-06 14:42:00,
2013-03-06 09:53:00,38.0,32.0,30.41,East,89,5.0,15.0,80,0.00,,,0.09,,2013-03-06 14:53:00,
2013-03-06 10:02:00,38.0,33.0,30.42,WNW,299,2.0,9.0,81,0.00,,,0.09,,2013-03-06 15:02:00,
2013-03-06 10:12:00,38.0,33.0,30.42,WNW,299,2.0,9.0,81,0.00,,,0.09,,2013-03-06 15:12:00,
2013-03-06 10:22:00,37.0,33.0,30.42,WSW,248,3.0,10.0,86,0.00,,,0.09,,2013-03-06 15:22:00,
2013-03-06 10:32:00,37.0,33.0,30.42,East,82,4.0,16.0,86,0.00,,,0.09,,2013-03-06 15:32:00,
2013-03-06 10:42:00,37.0,33.0,30.42,East,82,4.0,16.0,86,0.00,,,0.09,,2013-03-06 15:42:00,
2013-03-06 10:52:00,36.0,33.0,30.42,NE,46,2.0,15.0,90,0.01,,,0.10,,2013-03-06 15:52:00,
2013-03-06 11:02:00,35.0,33.0,30.42,ENE,58,5.0,13.0,91,0.01,,,0.10,,2013-03-06 16:02:00,
2013-03-06 11:12:00,35.0,33.0,30.42,ENE,58,5.0,13.0,91,0.01,,,0.10,,2013-03-06 16:12:00,
2013-03-06 11:21:00,35.0,33.0,30.42,NNE,33,1.0,12.0,94,0.02,,,0.11,,2013-03-06 16:21:00,
2013-03-06 11:32:00,35.0,33.0,30.42,ENE,73,2.0,12.0,93,0.02,,,0.11,,2013-03-06 16:32:00,
2013-03-06 11:42:00,35.0,33.0,30.42,ENE,73,2.0,12.0,93,0.02,,,0.11,,2013-03-06 16:42:00,
2013-03-06 11:52:00,35.0,33.0,30.41,ENE,77,2.0,12.0,94,0.01,,,0.11,,2013-03-06 16:52:00,
2013-03-06 12:01:00,36.0,34.0,30.41,NE,36,3.0,12.0,93,0.01,,,0.11,,2013-03-06 17:01:00,
2013-03-06 12:11:00,36.0,34.0,30.41,NE,36,3.0,12.0,93,0.01,,,0.11,,2013-03-06 17:11:00,
2013-03-06 12:22:00,36.0,34.0,30.41,ENE,75,4.0,14.0,93,0.00,,,0.11,,2013-03-06 17:22:00,
2013-03-06 12:32:00,36.0,34.0,30.41,ENE,68,3.0,6.0,93,0.01,,,0.12,,2013-03-06 17:32:00,
2013-03-06 12:42:00,36.0,34.0,30.41,ENE,68,3.0,6.0,93,0.01,,,0.12,,2013-03-06 17:42:00,
2013-03-06 12:53:00,35.0,33.0,30.40,SSE,156,4.0,20.0,93,0.02,,,0.13,,2013-03-06 17:53:00,
2013-03-06 13:02:00,36.0,34.0,30.40,NE,55,3.0,10.0,92,0.02,,,0.13,,2013-03-06 18:02:00,
2013-03-06 13:29:00,37.0,34.0,30.40,NE,48,2.0,12.0,90,0.02,,,0.13,,2013-03-06 18:29:00,
2013-03-06 13:42:00,37.0,34.0,30.40,NE,43,4.0,10.0,89,0.01,,,0.13,,2013-03-06 18:42:00,
2013-03-06 13:53:00,37.0,34.0,30.40,East,96,2.0,5.0,90,0.00,,,0.13,,2013-03-06 18:53:00,
2013-03-06 14:02:00,37.0,34.0,30.39,NNE,32,2.0,9.0,88,0.00,,,0.13,,2013-03-06 19:02:00,
2013-03-06 14:11:00,37.0,34.0,30.39,NNE,32,2.0,9.0,88,0.00,,,0.13,,2013-03-06 19:11:00,
2013-03-06 14:22:00,37.0,33.0,30.40,East,88,5.0,20.0,86,0.00,,,0.13,,2013-03-06 19:22:00,
2013-03-06 14:32:00,37.0,32.0,30.40,West,278,2.0,9.0,83,0.00,,,0.13,,2013-03-06 19:32:00,
2013-03-06 14:43:00,37.0,32.0,30.40,West,278,2.0,9.0,83,0.00,,,0.13,,2013-03-06 19:43:00,
2013-03-06 14:53:00,37.0,32.0,30.39,SSE,154,5.0,12.0,81,0.00,,,0.13,,2013-03-06 19:53:00,
2013-03-06 15:02:00,38.0,31.0,30.39,ENE,78,7.0,18.0,76,0.00,,,0.13,,2013-03-06 20:02:00,
2013-03-06 15:12:00,38.0,31.0,30.39,ENE,78,7.0,18.0,76,0.00,,,0.13,,2013-03-06 20:12:00,
2013-03-06 15:22:00,38.0,31.0,30.39,NNE,26,2.0,9.0,76,0.00,,,0.13,,2013-03-06 20:22:00,
2013-03-06 15:32:00,38.0,30.0,30.40,NE,44,5.0,17.0,72,0.00,,,0.13,,2013-03-06 20:32:00,
2013-03-06 15:42:00,38.0,30.0,30.40,NE,44,5.0,17.0,72,0.00,,,0.13,,2013-03-06 20:42:00,
2013-03-06 15:53:00,38.0,30.0,30.40,NNE,25,6.0,13.0,72,0.00,,,0.13,,2013-03-06 20:53:00,
2013-03-06 16:02:00,38.0,30.0,30.40,East,91,3.0,18.0,72,0.00,,,0.13,,2013-03-06 21:02:00,
2013-03-06 16:12:00,38.0,30.0,30.40,East,91,3.0,18.0,72,0.00,,,0.13,,2013-03-06 21:12:00,
2013-03-06 16:22:00,37.0,30.0,30.39,NE,51,6.0,14.0,75,0.00,,,0.13,,2013-03-06 21:22:00,
2013-03-06 16:32:00,37.0,30.0,30.40,ENE,78,3.0,16.0,77,0.00,,,0.13,,2013-03-06 21:32:00,
2013-03-06 16:42:00,37.0,30.0,30.40,ENE,78,3.0,16.0,77,0.00,,,0.13,,2013-03-06 21:42:00,
2013-03-06 16:52:00,37.0,31.0,30.40,ENE,77,5.0,15.0,78,0.00,,,0.13,,2013-03-06 21:52:00,
2013-03-06 17:02:00,36.0,30.0,30.40,East,98,4.0,12.0,80,0.00,,,0.13,,2013-03-06 22:02:00,
2013-03-06 17:11:00,36.0,30.0,30.40,East,98,4.0,12.0,80,0.00,,,0.13,,2013-03-06 22:11:00,
2013-03-06 17:22:00,36.0,31.0,30.40,East,82,3.0,12.0,81,0.00,,,0.13,,2013-03-06 22:22:00,
2013-03-06 17:32:00,36.0,31.0,30.41,ENE,61,1.0,10.0,82,0.00,,,0.13,,2013-03-06 22:32:00,
2013-03-06 17:42:00,36.0,31.0,30.41,ENE,61,1.0,10.0,82,0.00,,,0.13,,2013-03-06 22:42:00,
2013-03-06 17:52:00,36.0,31.0,30.42,East,79,3.0,13.0,81,0.00,,,0.13,,2013-03-06 22:52:00,
2013-03-06 18:01:00,36.0,31.0,30.42,ESE,114,3.0,12.0,81,0.00,,,0.13,,2013-03-06 23:01:00,
2013-03-06 18:11:00,36.0,31.0,30.42,ESE,114,3.0,12.0,81,0.00,,,0.13,,2013-03-06 23:11:00,
2013-03-06 18:22:00,36.0,31.0,30.42,ENE,67,3.0,29.0,82,0.00,,,0.13,,2013-03-06 23:22:00,
2013-03-06 18:32:00,36.0,31.0,30.42,ENE,67,5.0,15.0,82,0.00,,,0.13,,2013-03-06 23:32:00,
2013-03-06 18:42:00,36.0,31.0,30.42,ENE,67,5.0,15.0,82,0.00,,,0.13,,2013-03-06 23:42:00,
2013-03-06 18:52:00,36.0,31.0,30.42,ENE,58,5.0,12.0,81,0.00,,,0.13,,2013-03-06 23:52:00,
2013-03-06 19:02:00,36.0,31.0,30.41,NW,322,2.0,7.0,83,0.00,,,0.13,,2013-03-07 00:02:00,
2013-03-06 19:11:00,36.0,31.0,30.41,NW,322,2.0,7.0,83,0.00,,,0.13,,2013-03-07 00:11:00,
2013-03-06 19:22:00,36.0,32.0,30.41,NE,48,2.0,14.0,86,0.00,,,0.13,,2013-03-07 00:22:00,
2013-03-06 19:32:00,35.0,32.0,30.41,SE,125,3.0,9.0,88,0.00,,,0.13,,2013-03-07 00:32:00,
2013-03-06 19:42:00,35.0,32.0,30.41,SE,125,3.0,9.0,88,0.00,,,0.13,,2013-03-07 00:42:00,
2013-03-06 19:52:00,34.0,32.0,30.41,ENE,69,2.0,9.0,91,0.00,,,0.13,,2013-03-07 00:52:00,
2013-03-06 20:01:00,34.0,32.0,30.41,ENE,78,2.0,12.0,92,0.00,,,0.13,,2013-03-07 01:01:00,
2013-03-06 20:12:00,34.0,32.0,30.41,ENE,78,2.0,12.0,92,0.00,,,0.13,,2013-03-07 01:12:00,
2013-03-06 20:22:00,33.0,31.0,30.43,NE,36,0.0,5.0,94,0.00,,,0.13,,2013-03-07 01:22:00,
2013-03-06 20:32:00,33.0,32.0,30.42,NNW,333,1.0,5.0,95,0.00,,,0.13,,2013-03-07 01:32:00,
2013-03-06 20:42:00,33.0,32.0,30.42,NNW,333,1.0,5.0,95,0.00,,,0.13,,2013-03-07 01:42:00,
2013-03-06 20:52:00,33.0,32.0,30.42,ENE,68,2.0,6.0,95,0.00,,,0.13,,2013-03-07 01:52:00,
2013-03-06 21:01:00,33.0,32.0,30.42,NE,39,1.0,6.0,95,0.00,,,0.13,,2013-03-07 02:01:00,
2013-03-06 21:11:00,33.0,32.0,30.42,NE,39,1.0,6.0,95,0.00,,,0.13,,2013-03-07 02:11:00,
2013-03-06 21:21:00,33.0,32.0,30.42,NE,40,1.0,3.0,96,0.00,,,0.13,,2013-03-07 02:21:00,
2013-03-06 21:32:00,33.0,32.0,30.41,NE,43,1.0,6.0,96,0.00,,,0.13,,2013-03-07 02:32:00,
2013-03-06 21:42:00,33.0,32.0,30.41,NE,43,1.0,6.0,96,0.00,,,0.13,,2013-03-07 02:42:00,
2013-03-06 21:52:00,33.0,32.0,30.41,NE,43,1.0,6.0,96,0.00,,,0.13,,2013-03-07 02:52:00,
2013-03-06 22:02:00,32.0,31.0,30.40,South,186,2.0,6.0,96,0.00,,,0.13,,2013-03-07 03:02:00,
2013-03-06 22:11:00,32.0,31.0,30.40,South,186,2.0,6.0,96,0.00,,,0.13,,2013-03-07 03:11:00,
2013-03-06 22:22:00,32.0,31.0,30.40,West,271,1.0,7.0,96,0.00,,,0.13,,2013-03-07 03:22:00,
2013-03-06 22:32:00,33.0,32.0,30.40,NE,44,1.0,7.0,96,0.00,,,0.13,,2013-03-07 03:32:00,
2013-03-06 22:42:00,33.0,32.0,30.40,NE,44,1.0,7.0,96,0.00,,,0.13,,2013-03-07 03:42:00,
2013-03-06 22:52:00,33.0,32.0,30.39,NNE,30,1.0,6.0,96,0.00,,,0.13,,2013-03-07 03:52:00,
2013-03-06 23:02:00,33.0,32.0,30.39,NNE,33,2.0,3.0,96,0.00,,,0.13,,2013-03-07 04:02:00,
2013-03-06 23:12:00,33.0,32.0,30.39,NNE,33,2.0,3.0,96,0.00,,,0.13,,2013-03-07 04:12:00,
2013-03-06 23:22:00,33.0,32.0,30.39,NE,48,1.0,3.0,96,0.00,,,0.13,,2013-03-07 04:22:00,
2013-03-06 23:32:00,33.0,32.0,30.39,NE,46,1.0,3.0,95,0.00,,,0.13,,2013-03-07 04:32:00,
2013-03-06 23:42:00,33.0,32.0,30.39,NE,46,1.0,3.0,95,0.00,,,0.13,,2013-03-07 04:42:00,
2013-03-06 23:52:00,33.0,32.0,30.38,NE,50,1.0,3.0,95,0.00,,,0.12,,2013-03-07 04:52:00,